Location: Park Creek Village Mobile Home Park
(38.2885°N, 122.4714°W)
Time: 01:04:30
(UTC+00:00)

Meteor 2-13 Rocket - Pass Details

Date: 14 December 2019
Orbit: 937 x 957 km, 82.5° (Epoch: 20 January)

Event Time Altitude Azimuth Distance (km) Brightness Sun altitude
Rises 13:50:33 0° 351° (N) 3,635 7.2 -16.7°
Reaches altitude 10° 13:53:03 10° 351° (N) 2,688 6.6 -16.3°
Maximum altitude 13:59:12 81° 265° (W) 971 4.4 -15.1°
Drops below altitude 10° 14:05:20 10° 178° (S) 2,677 7.1 -14.0°
Sets 14:07:49 0° 178° (S) 3,619 7.8 -13.5°
